Time,TemperatureF,DewpointF,PressureIn,WindDirection,WindDirectionDegrees,WindSpeedMPH,WindSpeedGustMPH,Humidity,HourlyPrecipIn,Conditions,Clouds,dailyrainin,SoftwareType,DateUTC
2013-10-02 00:00:00,52.7,46.4,29.86,SE,133,0.0,0.0,79,0.00,,,0.00,WeatherCatV1.21B27,2013-10-02 07:00:00,
2013-10-02 00:05:00,53.6,47.9,29.85,SE,134,0.0,0.0,81,0.00,,,0.00,WeatherCatV1.21B27,2013-10-02 07:05:00,
2013-10-02 00:10:00,53.6,47.9,29.85,SE,133,0.0,0.0,81,0.00,,,0.00,WeatherCatV1.21B27,2013-10-02 07:10:00,
2013-10-02 00:15:00,53.7,48.0,29.85,SE,134,0.0,0.0,81,0.00,,,0.00,WeatherCatV1.21B27,2013-10-02 07:15:00,
2013-10-02 00:20:00,54.1,48.1,29.85,SE,133,0.0,0.0,80,0.00,,,0.00,WeatherCatV1.21B27,2013-10-02 07:20:00,
2013-10-02 00:25:00,54.3,48.3,29.85,SE,134,0.0,0.0,80,0.00,,,0.00,WeatherCatV1.21B27,2013-10-02 07:25:00,
2013-10-02 00:30:00,55.0,48.6,29.85,SE,134,0.0,0.0,79,0.00,,,0.00,WeatherCatV1.21B27,2013-10-02 07:30:00,
2013-10-02 00:35:00,55.5,48.8,29.85,SE,134,0.0,0.0,78,0.00,,,0.00,WeatherCatV1.21B27,2013-10-02 07:35:00,
2013-10-02 00:40:00,55.3,48.2,29.85,SE,133,0.0,0.0,77,0.00,,,0.00,WeatherCatV1.21B27,2013-10-02 07:40:00,
2013-10-02 00:45:00,55.3,48.6,29.85,SE,134,0.0,0.0,78,0.00,,,0.00,WeatherCatV1.21B27,2013-10-02 07:45:00,
2013-10-02 00:50:00,55.9,48.8,29.85,SE,134,0.0,0.0,77,0.00,,,0.00,WeatherCatV1.21B27,2013-10-02 07:50:00,
2013-10-02 00:55:00,56.1,48.6,29.85,SE,134,0.0,0.0,76,0.00,,,0.00,WeatherCatV1.21B27,2013-10-02 07:55:00,
2013-10-02 01:00:00,56.0,48.5,29.85,SE,134,0.0,0.0,76,0.00,,,0.00,WeatherCatV1.21B27,2013-10-02 08:00:00,
2013-10-02 01:05:00,56.0,48.5,29.85,SE,134,0.0,0.0,76,0.00,,,0.00,WeatherCatV1.21B27,2013-10-02 08:05:00,
2013-10-02 01:10:00,56.1,48.6,29.85,SE,134,0.0,0.0,76,0.00,,,0.00,WeatherCatV1.21B27,2013-10-02 08:10:00,
2013-10-02 01:15:00,56.4,48.6,29.85,SE,133,0.0,0.0,75,0.00,,,0.00,WeatherCatV1.21B27,2013-10-02 08:15:00,
2013-10-02 01:20:00,56.3,48.5,29.85,SE,133,0.0,0.0,75,0.00,,,0.00,WeatherCatV1.21B27,2013-10-02 08:20:00,
2013-10-02 01:25:00,55.7,48.2,29.85,SE,134,0.0,0.0,76,0.00,,,0.00,WeatherCatV1.21B27,2013-10-02 08:25:00,
2013-10-02 01:30:00,55.3,48.2,29.85,SE,134,0.0,0.0,77,0.00,,,0.00,WeatherCatV1.21B27,2013-10-02 08:30:00,
2013-10-02 01:35:00,55.2,48.1,29.85,SE,133,0.0,0.0,77,0.00,,,0.00,WeatherCatV1.21B27,2013-10-02 08:35:00,
2013-10-02 01:40:00,55.1,48.0,29.85,SE,133,0.0,0.0,77,0.00,,,0.00,WeatherCatV1.21B27,2013-10-02 08:40:00,
2013-10-02 01:45:00,55.3,48.2,29.85,SE,133,0.0,0.0,77,0.00,,,0.00,WeatherCatV1.21B27,2013-10-02 08:45:00,
2013-10-02 01:50:00,55.1,48.0,29.85,SE,134,0.0,0.0,77,0.00,,,0.00,WeatherCatV1.21B27,2013-10-02 08:50:00,
2013-10-02 01:55:00,54.8,48.1,29.85,SE,134,0.0,0.0,78,0.00,,,0.00,WeatherCatV1.21B27,2013-10-02 08:55:00,
2013-10-02 02:00:00,54.9,47.8,29.85,SE,134,0.0,0.0,77,0.00,,,0.00,WeatherCatV1.21B27,2013-10-02 09:00:00,
2013-10-02 02:05:00,54.6,47.9,29.85,SE,134,0.0,0.0,78,0.00,,,0.00,WeatherCatV1.21B27,2013-10-02 09:05:00,
2013-10-02 02:10:00,54.8,48.1,29.85,SE,134,0.0,0.0,78,0.00,,,0.00,WeatherCatV1.21B27,2013-10-02 09:10:00,
2013-10-02 02:15:00,54.9,48.2,29.85,SE,134,0.0,0.0,78,0.00,,,0.00,WeatherCatV1.21B27,2013-10-02 09:15:00,
2013-10-02 02:20:00,55.2,48.1,29.85,SE,134,0.0,0.0,77,0.00,,,0.00,WeatherCatV1.21B27,2013-10-02 09:20:00,
2013-10-02 02:25:00,55.1,48.0,29.84,SE,133,0.0,0.0,77,0.00,,,0.00,WeatherCatV1.21B27,2013-10-02 09:25:00,
2013-10-02 02:30:00,55.0,47.9,29.84,SE,133,0.0,0.0,77,0.00,,,0.00,WeatherCatV1.21B27,2013-10-02 09:30:00,
2013-10-02 02:35:00,55.0,47.9,29.85,SE,134,0.0,0.0,77,0.00,,,0.00,WeatherCatV1.21B27,2013-10-02 09:35:00,
2013-10-02 02:40:00,54.6,47.9,29.85,SE,134,0.0,0.0,78,0.00,,,0.00,WeatherCatV1.21B27,2013-10-02 09:40:00,
2013-10-02 02:45:00,54.6,47.5,29.85,SE,134,0.0,0.0,77,0.00,,,0.00,WeatherCatV1.21B27,2013-10-02 09:45:00,
2013-10-02 02:50:00,54.3,47.6,29.85,SE,133,0.0,0.0,78,0.00,,,0.00,WeatherCatV1.21B27,2013-10-02 09:50:00,
2013-10-02 02:55:00,54.4,47.7,29.85,SE,134,0.0,0.0,78,0.00,,,0.00,WeatherCatV1.21B27,2013-10-02 09:55:00,
2013-10-02 03:00:00,54.4,47.7,29.85,SE,134,0.0,0.0,78,0.00,,,0.00,WeatherCatV1.21B27,2013-10-02 10:00:00,
2013-10-02 03:05:00,54.5,47.8,29.85,SE,134,0.0,0.0,78,0.00,,,0.00,WeatherCatV1.21B27,2013-10-02 10:05:00,
2013-10-02 03:10:00,54.7,48.0,29.84,SE,134,0.0,0.0,78,0.00,,,0.00,WeatherCatV1.21B27,2013-10-02 10:10:00,
2013-10-02 03:15:00,54.3,47.6,29.84,SE,133,0.0,0.0,78,0.00,,,0.00,WeatherCatV1.21B27,2013-10-02 10:15:00,
2013-10-02 03:20:00,54.2,47.8,29.84,SE,133,0.0,0.0,79,0.00,,,0.00,WeatherCatV1.21B27,2013-10-02 10:20:00,
2013-10-02 03:25:00,54.7,48.0,29.84,SE,134,0.0,0.0,78,0.00,,,0.00,WeatherCatV1.21B27,2013-10-02 10:25:00,
2013-10-02 03:30:00,54.5,47.8,29.84,SE,133,0.0,0.0,78,0.00,,,0.00,WeatherCatV1.21B27,2013-10-02 10:30:00,
2013-10-02 03:35:00,54.1,47.4,29.84,SE,133,0.0,0.0,78,0.00,,,0.00,WeatherCatV1.21B27,2013-10-02 10:35:00,
2013-10-02 03:40:00,53.8,47.4,29.84,SE,133,0.0,0.0,79,0.00,,,0.00,WeatherCatV1.21B27,2013-10-02 10:40:00,
2013-10-02 03:45:00,53.6,47.6,29.84,SE,133,0.0,0.0,80,0.00,,,0.00,WeatherCatV1.21B27,2013-10-02 10:45:00,
2013-10-02 03:50:00,53.5,47.2,29.85,SE,133,0.0,0.0,79,0.00,,,0.00,WeatherCatV1.21B27,2013-10-02 10:50:00,
2013-10-02 03:55:00,53.0,47.0,29.85,SE,134,0.0,0.0,80,0.00,,,0.00,WeatherCatV1.21B27,2013-10-02 10:55:00,
2013-10-02 04:00:00,53.0,47.3,29.85,SE,133,0.0,0.0,81,0.00,,,0.00,WeatherCatV1.21B27,2013-10-02 11:00:00,
2013-10-02 04:05:00,53.3,47.3,29.85,SE,133,0.0,0.0,80,0.00,,,0.00,WeatherCatV1.21B27,2013-10-02 11:05:00,
2013-10-02 04:10:00,53.7,47.7,29.85,SE,136,0.0,0.0,80,0.00,,,0.00,WeatherCatV1.21B27,2013-10-02 11:10:00,
2013-10-02 04:15:00,53.7,47.3,29.85,SE,136,0.0,0.0,79,0.00,,,0.00,WeatherCatV1.21B27,2013-10-02 11:15:00,
2013-10-02 04:20:00,53.6,47.6,29.85,SE,136,0.0,0.0,80,0.00,,,0.00,WeatherCatV1.21B27,2013-10-02 11:20:00,
2013-10-02 04:25:00,53.6,47.6,29.85,SE,136,0.0,0.0,80,0.00,,,0.00,WeatherCatV1.21B27,2013-10-02 11:25:00,
2013-10-02 04:30:00,53.6,47.6,29.85,SE,136,0.0,0.0,80,0.00,,,0.00,WeatherCatV1.21B27,2013-10-02 11:30:00,
2013-10-02 04:35:00,53.6,47.6,29.85,SE,136,0.0,0.0,80,0.00,,,0.00,WeatherCatV1.21B27,2013-10-02 11:35:00,
2013-10-02 04:40:00,53.6,47.6,29.85,SE,136,0.0,0.0,80,0.00,,,0.00,WeatherCatV1.21B27,2013-10-02 11:40:00,
2013-10-02 04:45:00,53.5,47.5,29.85,SE,136,0.0,0.0,80,0.00,,,0.00,WeatherCatV1.21B27,2013-10-02 11:45:00,
2013-10-02 04:50:00,53.5,47.5,29.85,SE,136,0.0,0.0,80,0.00,,,0.00,WeatherCatV1.21B27,2013-10-02 11:50:00,
2013-10-02 04:55:00,53.6,47.6,29.86,SE,134,0.0,0.0,80,0.00,,,0.00,WeatherCatV1.21B27,2013-10-02 11:55:00,
2013-10-02 05:00:00,53.6,47.6,29.86,SE,133,0.0,0.0,80,0.00,,,0.00,WeatherCatV1.21B27,2013-10-02 12:00:00,
2013-10-02 05:05:00,53.7,47.7,29.86,SE,134,0.0,0.0,80,0.00,,,0.00,WeatherCatV1.21B27,2013-10-02 12:05:00,
2013-10-02 05:10:00,54.0,47.6,29.86,SE,133,0.0,0.0,79,0.00,,,0.00,WeatherCatV1.21B27,2013-10-02 12:10:00,
2013-10-02 05:15:00,54.1,47.7,29.86,SE,133,0.0,0.0,79,0.00,,,0.00,WeatherCatV1.21B27,2013-10-02 12:15:00,
2013-10-02 05:20:00,54.1,47.7,29.86,SE,134,0.0,0.0,79,0.00,,,0.00,WeatherCatV1.21B27,2013-10-02 12:20:00,
2013-10-02 05:25:00,54.2,47.8,29.86,SE,134,0.0,0.0,79,0.00,,,0.00,WeatherCatV1.21B27,2013-10-02 12:25:00,
2013-10-02 05:30:00,54.4,47.7,29.86,SE,134,0.0,0.0,78,0.00,,,0.00,WeatherCatV1.21B27,2013-10-02 12:30:00,
2013-10-02 05:35:00,54.6,47.9,29.86,SE,134,0.0,0.0,78,0.00,,,0.00,WeatherCatV1.21B27,2013-10-02 12:35:00,
2013-10-02 05:40:00,54.7,47.6,29.86,SE,134,0.0,0.0,77,0.00,,,0.00,WeatherCatV1.21B27,2013-10-02 12:40:00,
2013-10-02 05:45:00,54.6,47.9,29.86,SE,134,0.0,0.0,78,0.00,,,0.00,WeatherCatV1.21B27,2013-10-02 12:45:00,
2013-10-02 05:50:00,54.7,48.0,29.86,SE,134,0.0,0.0,78,0.00,,,0.00,WeatherCatV1.21B27,2013-10-02 12:50:00,
2013-10-02 05:55:00,55.0,47.9,29.86,SE,134,0.0,0.0,77,0.00,,,0.00,WeatherCatV1.21B27,2013-10-02 12:55:00,
2013-10-02 06:00:00,54.9,47.8,29.86,SE,138,0.0,0.0,77,0.00,,,0.00,WeatherCatV1.21B27,2013-10-02 13:00:00,
2013-10-02 06:05:00,54.6,47.5,29.86,SE,140,0.0,0.0,77,0.00,,,0.00,WeatherCatV1.21B27,2013-10-02 13:05:00,
2013-10-02 06:10:00,54.5,47.4,29.87,SE,133,0.0,0.0,77,0.00,,,0.00,WeatherCatV1.21B27,2013-10-02 13:10:00,
2013-10-02 06:15:00,54.5,47.4,29.87,SE,134,0.0,0.0,77,0.00,,,0.00,WeatherCatV1.21B27,2013-10-02 13:15:00,
2013-10-02 06:20:00,54.8,47.7,29.87,SE,134,0.0,0.0,77,0.00,,,0.00,WeatherCatV1.21B27,2013-10-02 13:20:00,
2013-10-02 06:25:00,54.5,47.4,29.87,SE,133,0.0,0.0,77,0.00,,,0.00,WeatherCatV1.21B27,2013-10-02 13:25:00,
2013-10-02 06:30:00,54.3,47.2,29.87,SE,134,0.0,0.0,77,0.00,,,0.00,WeatherCatV1.21B27,2013-10-02 13:30:00,
2013-10-02 06:35:00,54.3,47.2,29.87,SE,133,0.0,0.0,77,0.00,,,0.00,WeatherCatV1.21B27,2013-10-02 13:35:00,
2013-10-02 06:40:00,53.8,47.1,29.87,SE,133,0.0,0.0,78,0.00,,,0.00,WeatherCatV1.21B27,2013-10-02 13:40:00,
2013-10-02 06:45:00,53.7,47.3,29.87,SE,134,0.0,0.0,79,0.00,,,0.00,WeatherCatV1.21B27,2013-10-02 13:45:00,
2013-10-02 06:50:00,53.8,47.4,29.87,SE,133,0.0,0.0,79,0.00,,,0.00,WeatherCatV1.21B27,2013-10-02 13:50:00,
2013-10-02 06:55:00,53.8,47.4,29.87,SE,133,0.0,0.0,79,0.00,,,0.00,WeatherCatV1.21B27,2013-10-02 13:55:00,
2013-10-02 07:00:00,53.9,47.5,29.88,SE,134,0.0,0.0,79,0.00,,,0.00,WeatherCatV1.21B27,2013-10-02 14:00:00,
2013-10-02 07:05:00,54.0,47.6,29.88,SSE,148,0.0,1.0,79,0.00,,,0.00,WeatherCatV1.21B27,2013-10-02 14:05:00,
2013-10-02 07:10:00,53.4,47.4,29.88,SSE,158,1.0,1.0,80,0.00,,,0.00,WeatherCatV1.21B27,2013-10-02 14:10:00,
2013-10-02 07:15:00,52.5,46.8,29.88,SE,142,0.0,1.0,81,0.00,,,0.00,WeatherCatV1.21B27,2013-10-02 14:15:00,
2013-10-02 07:20:00,52.5,46.8,29.88,ESE,120,0.0,1.0,81,0.00,,,0.00,WeatherCatV1.21B27,2013-10-02 14:20:00,
2013-10-02 07:25:00,52.8,47.1,29.88,ESE,121,0.0,0.0,81,0.00,,,0.00,WeatherCatV1.21B27,2013-10-02 14:25:00,
2013-10-02 07:30:00,53.1,47.1,29.89,SE,126,2.0,3.0,80,0.00,,,0.00,WeatherCatV1.21B27,2013-10-02 14:30:00,
2013-10-02 07:35:00,53.5,46.8,29.89,SE,126,3.0,3.0,78,0.00,,,0.00,WeatherCatV1.21B27,2013-10-02 14:35:00,
2013-10-02 07:40:00,53.3,46.6,29.89,East,101,4.0,5.0,78,0.00,,,0.00,WeatherCatV1.21B27,2013-10-02 14:40:00,
2013-10-02 07:45:00,52.8,46.5,29.89,ESE,111,3.0,5.0,79,0.00,,,0.00,WeatherCatV1.21B27,2013-10-02 14:45:00,
2013-10-02 07:50:00,52.5,46.2,29.89,SE,140,3.0,4.0,79,0.00,,,0.00,WeatherCatV1.21B27,2013-10-02 14:50:00,
2013-10-02 07:55:00,52.4,46.4,29.89,ESE,122,3.0,6.0,80,0.00,,,0.00,WeatherCatV1.21B27,2013-10-02 14:55:00,
2013-10-02 08:00:00,52.2,46.2,29.90,SE,128,4.0,9.0,80,0.00,,,0.00,WeatherCatV1.21B27,2013-10-02 15:00:00,
2013-10-02 08:05:00,52.5,46.5,29.90,East,97,4.0,8.0,80,0.00,,,0.00,WeatherCatV1.21B27,2013-10-02 15:05:00,
2013-10-02 08:10:00,52.7,46.7,29.90,SE,138,3.0,7.0,80,0.00,,,0.00,WeatherCatV1.21B27,2013-10-02 15:10:00,
2013-10-02 08:15:00,53.2,46.9,29.90,East,91,5.0,10.0,79,0.00,,,0.00,WeatherCatV1.21B27,2013-10-02 15:15:00,
2013-10-02 08:20:00,53.7,47.3,29.90,ESE,123,1.0,5.0,79,0.00,,,0.00,WeatherCatV1.21B27,2013-10-02 15:20:00,
2013-10-02 08:25:00,54.1,47.4,29.90,SE,126,3.0,4.0,78,0.00,,,0.00,WeatherCatV1.21B27,2013-10-02 15:25:00,
2013-10-02 08:30:00,54.6,48.2,29.90,ESE,111,3.0,4.0,79,0.00,,,0.00,WeatherCatV1.21B27,2013-10-02 15:30:00,
2013-10-02 08:35:00,54.6,47.9,29.90,SSE,163,0.0,4.0,78,0.00,,,0.00,WeatherCatV1.21B27,2013-10-02 15:35:00,
2013-10-02 08:40:00,54.6,47.9,29.90,East,92,6.0,6.0,78,0.00,,,0.00,WeatherCatV1.21B27,2013-10-02 15:40:00,
2013-10-02 08:45:00,54.5,47.8,29.91,East,88,5.0,6.0,78,0.00,,,0.00,WeatherCatV1.21B27,2013-10-02 15:45:00,
2013-10-02 08:50:00,54.8,48.1,29.91,SSE,159,2.0,4.0,78,0.00,,,0.00,WeatherCatV1.21B27,2013-10-02 15:50:00,
2013-10-02 08:55:00,55.1,48.7,29.91,SSE,159,0.0,1.0,79,0.00,,,0.00,WeatherCatV1.21B27,2013-10-02 15:55:00,
2013-10-02 09:00:00,56.5,49.7,29.91,ESE,109,2.0,2.0,78,0.00,,,0.00,WeatherCatV1.21B27,2013-10-02 16:00:00,
2013-10-02 09:05:00,56.7,49.6,29.91,ESE,105,2.0,2.0,77,0.00,,,0.00,WeatherCatV1.21B27,2013-10-02 16:05:00,
2013-10-02 09:10:00,56.7,49.6,29.91,ESE,103,0.0,0.0,77,0.00,,,0.00,WeatherCatV1.21B27,2013-10-02 16:10:00,
2013-10-02 09:15:00,57.4,50.2,29.91,ESE,111,0.0,1.0,77,0.00,,,0.00,WeatherCatV1.21B27,2013-10-02 16:15:00,
2013-10-02 09:20:00,58.5,50.6,29.91,South,179,2.0,2.0,75,0.00,,,0.00,WeatherCatV1.21B27,2013-10-02 16:20:00,
2013-10-02 09:25:00,59.6,50.9,29.91,SSE,150,1.0,3.0,73,0.00,,,0.00,WeatherCatV1.21B27,2013-10-02 16:25:00,
2013-10-02 09:30:00,58.8,49.4,29.91,South,173,4.0,4.0,71,0.00,,,0.00,WeatherCatV1.21B27,2013-10-02 16:30:00,
2013-10-02 09:35:00,57.2,48.6,29.92,South,182,3.0,5.0,73,0.00,,,0.00,WeatherCatV1.21B27,2013-10-02 16:35:00,
2013-10-02 09:40:00,57.1,49.6,29.92,SSE,153,1.0,2.0,76,0.00,,,0.00,WeatherCatV1.21B27,2013-10-02 16:40:00,
2013-10-02 09:45:00,57.9,49.7,29.92,South,176,4.0,5.0,74,0.00,,,0.00,WeatherCatV1.21B27,2013-10-02 16:45:00,
2013-10-02 09:50:00,57.9,50.0,29.92,SSE,155,1.0,4.0,75,0.00,,,0.00,WeatherCatV1.21B27,2013-10-02 16:50:00,
2013-10-02 09:55:00,58.4,50.5,29.92,SSE,153,4.0,4.0,75,0.00,,,0.00,WeatherCatV1.21B27,2013-10-02 16:55:00,
2013-10-02 10:00:00,58.4,50.5,29.92,South,172,1.0,2.0,75,0.00,,,0.00,WeatherCatV1.21B27,2013-10-02 17:00:00,
2013-10-02 10:05:00,58.9,50.3,29.92,SSE,154,2.0,4.0,73,0.00,,,0.00,WeatherCatV1.21B27,2013-10-02 17:05:00,
2013-10-02 10:10:00,58.8,49.8,29.92,SSE,156,0.0,4.0,72,0.00,,,0.00,WeatherCatV1.21B27,2013-10-02 17:10:00,
2013-10-02 10:15:00,59.4,50.7,29.92,SSE,151,1.0,4.0,73,0.00,,,0.00,WeatherCatV1.21B27,2013-10-02 17:15:00,
2013-10-02 10:20:00,60.3,51.2,29.92,SSE,167,1.0,4.0,72,0.00,,,0.00,WeatherCatV1.21B27,2013-10-02 17:20:00,
2013-10-02 10:25:00,60.1,50.7,29.93,SE,140,1.0,4.0,71,0.00,,,0.00,WeatherCatV1.21B27,2013-10-02 17:25:00,
2013-10-02 10:30:00,61.1,51.6,29.92,South,177,2.0,4.0,71,0.00,,,0.00,WeatherCatV1.21B27,2013-10-02 17:30:00,
2013-10-02 10:35:00,61.3,51.0,29.93,SSE,160,1.0,5.0,69,0.00,,,0.00,WeatherCatV1.21B27,2013-10-02 17:35:00,
2013-10-02 10:40:00,61.2,50.9,29.93,South,182,0.0,5.0,69,0.00,,,0.00,WeatherCatV1.21B27,2013-10-02 17:40:00,
2013-10-02 10:45:00,62.0,51.7,29.93,SSE,158,1.0,3.0,69,0.00,,,0.00,WeatherCatV1.21B27,2013-10-02 17:45:00,
2013-10-02 10:50:00,62.6,51.1,29.93,South,180,1.0,5.0,66,0.00,,,0.00,WeatherCatV1.21B27,2013-10-02 17:50:00,
2013-10-02 10:55:00,63.0,52.3,29.92,SE,126,2.0,4.0,68,0.00,,,0.00,WeatherCatV1.21B27,2013-10-02 17:55:00,
2013-10-02 11:00:00,63.8,51.4,29.92,ENE,78,2.0,3.0,64,0.00,,,0.00,WeatherCatV1.21B27,2013-10-02 18:00:00,
2013-10-02 11:05:00,63.7,51.7,29.92,SE,144,0.0,2.0,65,0.00,,,0.00,WeatherCatV1.21B27,2013-10-02 18:05:00,
2013-10-02 11:10:00,64.4,52.0,29.92,SE,142,2.0,3.0,64,0.00,,,0.00,WeatherCatV1.21B27,2013-10-02 18:10:00,
2013-10-02 11:15:00,64.7,51.4,29.92,SSE,165,1.0,3.0,62,0.00,,,0.00,WeatherCatV1.21B27,2013-10-02 18:15:00,
2013-10-02 11:20:00,65.2,51.0,29.92,SSE,161,1.0,2.0,60,0.00,,,0.00,WeatherCatV1.21B27,2013-10-02 18:20:00,
2013-10-02 11:25:00,65.4,50.2,29.92,South,171,2.0,3.0,58,0.00,,,0.00,WeatherCatV1.21B27,2013-10-02 18:25:00,
2013-10-02 11:30:00,65.4,51.1,29.92,SSE,147,0.0,3.0,60,0.00,,,0.00,WeatherCatV1.21B27,2013-10-02 18:30:00,
2013-10-02 11:35:00,66.2,51.0,29.92,SSE,165,2.0,5.0,58,0.00,,,0.00,WeatherCatV1.21B27,2013-10-02 18:35:00,
2013-10-02 11:40:00,65.5,50.3,29.92,SSW,192,1.0,4.0,58,0.00,,,0.00,WeatherCatV1.21B27,2013-10-02 18:40:00,
2013-10-02 11:45:00,65.7,49.6,29.92,ENE,58,4.0,9.0,56,0.00,,,0.00,WeatherCatV1.21B27,2013-10-02 18:45:00,
2013-10-02 11:50:00,66.1,49.9,29.92,South,187,1.0,2.0,56,0.00,,,0.00,WeatherCatV1.21B27,2013-10-02 18:50:00,
2013-10-02 11:55:00,66.2,50.0,29.91,SSE,151,1.0,2.0,56,0.00,,,0.00,WeatherCatV1.21B27,2013-10-02 18:55:00,
2013-10-02 12:00:00,66.2,49.5,29.91,ENE,62,3.0,3.0,55,0.00,,,0.00,WeatherCatV1.21B27,2013-10-02 19:00:00,
2013-10-02 12:05:00,66.2,49.5,29.91,SSE,161,2.0,5.0,55,0.00,,,0.00,WeatherCatV1.21B27,2013-10-02 19:05:00,
2013-10-02 12:10:00,66.6,49.9,29.91,SW,232,2.0,2.0,55,0.00,,,0.00,WeatherCatV1.21B27,2013-10-02 19:10:00,
2013-10-02 12:15:00,67.2,49.5,29.91,South,169,1.0,2.0,53,0.00,,,0.00,WeatherCatV1.21B27,2013-10-02 19:15:00,
2013-10-02 12:20:00,67.2,49.0,29.91,ENE,78,4.0,6.0,52,0.00,,,0.00,WeatherCatV1.21B27,2013-10-02 19:20:00,
2013-10-02 12:25:00,66.2,48.6,29.91,ENE,66,6.0,7.0,53,0.00,,,0.00,WeatherCatV1.21B27,2013-10-02 19:25:00,
2013-10-02 12:30:00,65.3,48.7,29.91,East,86,3.0,7.0,55,0.00,,,0.00,WeatherCatV1.21B27,2013-10-02 19:30:00,
2013-10-02 12:35:00,65.7,48.6,29.91,ESE,107,2.0,7.0,54,0.00,,,0.00,WeatherCatV1.21B27,2013-10-02 19:35:00,
2013-10-02 12:40:00,65.5,48.9,29.90,ENE,59,5.0,9.0,55,0.00,,,0.00,WeatherCatV1.21B27,2013-10-02 19:40:00,
2013-10-02 12:45:00,65.8,49.7,29.90,East,91,2.0,7.0,56,0.00,,,0.00,WeatherCatV1.21B27,2013-10-02 19:45:00,
2013-10-02 12:50:00,65.3,49.2,29.90,East,79,7.0,10.0,56,0.00,,,0.00,WeatherCatV1.21B27,2013-10-02 19:50:00,
2013-10-02 12:55:00,65.1,49.5,29.90,NE,34,2.0,6.0,57,0.00,,,0.00,WeatherCatV1.21B27,2013-10-02 19:55:00,
2013-10-02 13:00:00,65.4,50.2,29.90,ENE,66,3.0,11.0,58,0.00,,,0.00,WeatherCatV1.21B27,2013-10-02 20:00:00,
2013-10-02 13:05:00,65.2,49.6,29.90,SE,131,1.0,5.0,57,0.00,,,0.00,WeatherCatV1.21B27,2013-10-02 20:05:00,
2013-10-02 13:10:00,65.4,49.3,29.90,SE,146,1.0,6.0,56,0.00,,,0.00,WeatherCatV1.21B27,2013-10-02 20:10:00,
2013-10-02 13:15:00,66.4,50.7,29.90,SE,132,2.0,4.0,57,0.00,,,0.00,WeatherCatV1.21B27,2013-10-02 20:15:00,
2013-10-02 13:20:00,65.3,49.7,29.90,ENE,71,11.0,11.0,57,0.00,,,0.00,WeatherCatV1.21B27,2013-10-02 20:20:00,
2013-10-02 13:25:00,65.2,49.6,29.90,ENE,73,5.0,13.0,57,0.00,,,0.00,WeatherCatV1.21B27,2013-10-02 20:25:00,
2013-10-02 13:30:00,65.3,49.2,29.90,East,82,12.0,12.0,56,0.00,,,0.00,WeatherCatV1.21B27,2013-10-02 20:30:00,
2013-10-02 13:35:00,64.2,48.6,29.90,ESE,111,2.0,6.0,57,0.00,,,0.00,WeatherCatV1.21B27,2013-10-02 20:35:00,
2013-10-02 13:40:00,63.4,48.8,29.90,ENE,67,5.0,6.0,59,0.00,,,0.00,WeatherCatV1.21B27,2013-10-02 20:40:00,
2013-10-02 13:50:00,63.7,48.6,29.90,ENE,69,10.0,10.0,58,0.00,,,0.00,WeatherCatV1.21B27,2013-10-02 20:50:00,
2013-10-02 13:55:00,63.8,48.7,29.89,ENE,62,3.0,7.0,58,0.00,,,0.00,WeatherCatV1.21B27,2013-10-02 20:55:00,
2013-10-02 14:00:00,63.2,48.6,29.90,East,101,5.0,5.0,59,0.00,,,0.00,WeatherCatV1.21B27,2013-10-02 21:00:00,
2013-10-02 14:05:00,63.3,48.7,29.89,ESE,102,2.0,7.0,59,0.00,,,0.00,WeatherCatV1.21B27,2013-10-02 21:05:00,
2013-10-02 14:10:00,63.7,49.1,29.89,East,94,2.0,5.0,59,0.00,,,0.00,WeatherCatV1.21B27,2013-10-02 21:10:00,
2013-10-02 14:15:00,63.0,48.4,29.89,ESE,109,6.0,6.0,59,0.00,,,0.00,WeatherCatV1.21B27,2013-10-02 21:15:00,
2013-10-02 14:20:00,62.8,48.2,29.89,East,83,3.0,5.0,59,0.00,,,0.00,WeatherCatV1.21B27,2013-10-02 21:20:00,
2013-10-02 14:25:00,62.4,48.3,29.89,ESE,120,2.0,9.0,60,0.00,,,0.00,WeatherCatV1.21B27,2013-10-02 21:25:00,
2013-10-02 14:30:00,63.3,48.7,29.89,SSE,156,2.0,3.0,59,0.00,,,0.00,WeatherCatV1.21B27,2013-10-02 21:30:00,
2013-10-02 14:35:00,63.5,48.5,29.89,SE,146,1.0,12.0,58,0.00,,,0.00,WeatherCatV1.21B27,2013-10-02 21:35:00,
2013-10-02 14:40:00,63.3,48.7,29.89,ENE,78,12.0,15.0,59,0.00,,,0.00,WeatherCatV1.21B27,2013-10-02 21:40:00,
2013-10-02 14:45:00,63.1,49.0,29.89,East,96,2.0,8.0,60,0.00,,,0.00,WeatherCatV1.21B27,2013-10-02 21:45:00,
2013-10-02 14:50:00,63.2,49.1,29.88,ENE,64,8.0,8.0,60,0.00,,,0.00,WeatherCatV1.21B27,2013-10-02 21:50:00,
2013-10-02 14:55:00,62.9,48.3,29.89,ENE,61,11.0,13.0,59,0.00,,,0.00,WeatherCatV1.21B27,2013-10-02 21:55:00,
2013-10-02 15:00:00,61.9,48.3,29.89,SW,232,3.0,6.0,61,0.00,,,0.00,WeatherCatV1.21B27,2013-10-02 22:00:00,
2013-10-02 15:05:00,62.3,48.7,29.88,ESE,105,2.0,4.0,61,0.00,,,0.00,WeatherCatV1.21B27,2013-10-02 22:05:00,
2013-10-02 15:10:00,62.4,48.3,29.88,SE,134,0.0,5.0,60,0.00,,,0.00,WeatherCatV1.21B27,2013-10-02 22:10:00,
2013-10-02 15:15:00,62.6,48.5,29.88,SE,131,2.0,7.0,60,0.00,,,0.00,WeatherCatV1.21B27,2013-10-02 22:15:00,
2013-10-02 15:20:00,62.8,48.7,29.88,ESE,106,1.0,7.0,60,0.00,,,0.00,WeatherCatV1.21B27,2013-10-02 22:20:00,
2013-10-02 15:25:00,62.5,48.0,29.88,South,173,2.0,6.0,59,0.00,,,0.00,WeatherCatV1.21B27,2013-10-02 22:25:00,
2013-10-02 15:30:00,62.1,47.6,29.89,SE,138,0.0,6.0,59,0.00,,,0.00,WeatherCatV1.21B27,2013-10-02 22:30:00,
2013-10-02 15:35:00,62.9,48.3,29.88,South,175,2.0,6.0,59,0.00,,,0.00,WeatherCatV1.21B27,2013-10-02 22:35:00,
2013-10-02 15:40:00,62.5,48.0,29.88,ENE,76,11.0,11.0,59,0.00,,,0.00,WeatherCatV1.21B27,2013-10-02 22:40:00,
2013-10-02 15:45:00,61.9,47.4,29.89,SE,141,1.0,10.0,59,0.00,,,0.00,WeatherCatV1.21B27,2013-10-02 22:45:00,
2013-10-02 15:50:00,61.7,47.2,29.89,SSE,168,1.0,3.0,59,0.00,,,0.00,WeatherCatV1.21B27,2013-10-02 22:50:00,
2013-10-02 15:55:00,61.6,47.1,29.89,ESE,110,4.0,16.0,59,0.00,,,0.00,WeatherCatV1.21B27,2013-10-02 22:55:00,
2013-10-02 16:00:00,60.8,46.4,29.89,NE,55,10.0,14.0,59,0.00,,,0.00,WeatherCatV1.21B27,2013-10-02 23:00:00,
2013-10-02 16:05:00,60.2,46.3,29.89,ESE,109,6.0,13.0,60,0.00,,,0.00,WeatherCatV1.21B27,2013-10-02 23:05:00,
2013-10-02 16:10:00,59.3,46.7,29.90,NNE,19,2.0,10.0,63,0.00,,,0.00,WeatherCatV1.21B27,2013-10-02 23:10:00,
2013-10-02 16:15:00,59.5,46.9,29.89,South,190,2.0,6.0,63,0.00,,,0.00,WeatherCatV1.21B27,2013-10-02 23:15:00,
2013-10-02 16:20:00,59.3,46.7,29.89,ENE,78,3.0,9.0,63,0.00,,,0.00,WeatherCatV1.21B27,2013-10-02 23:20:00,
2013-10-02 16:25:00,58.9,46.7,29.89,South,186,5.0,8.0,64,0.00,,,0.00,WeatherCatV1.21B27,2013-10-02 23:25:00,
2013-10-02 16:30:00,58.8,47.1,29.89,East,91,5.0,10.0,65,0.00,,,0.00,WeatherCatV1.21B27,2013-10-02 23:30:00,
2013-10-02 16:35:00,58.7,47.0,29.89,ESE,122,1.0,7.0,65,0.00,,,0.00,WeatherCatV1.21B27,2013-10-02 23:35:00,
2013-10-02 16:40:00,58.9,47.2,29.89,ESE,111,2.0,4.0,65,0.00,,,0.00,WeatherCatV1.21B27,2013-10-02 23:40:00,
2013-10-02 16:45:00,59.1,47.3,29.88,South,183,4.0,6.0,65,0.00,,,0.00,WeatherCatV1.21B27,2013-10-02 23:45:00,
2013-10-02 16:50:00,58.9,47.2,29.89,SE,141,2.0,12.0,65,0.00,,,0.00,WeatherCatV1.21B27,2013-10-02 23:50:00,
2013-10-02 16:55:00,58.7,47.0,29.89,South,184,2.0,7.0,65,0.00,,,0.00,WeatherCatV1.21B27,2013-10-02 23:55:00,
2013-10-02 17:00:00,58.4,47.1,29.89,South,176,1.0,4.0,66,0.00,,,0.00,WeatherCatV1.21B27,2013-10-03 00:00:00,
2013-10-02 17:05:00,58.4,47.1,29.89,South,173,0.0,5.0,66,0.00,,,0.00,WeatherCatV1.21B27,2013-10-03 00:05:00,
2013-10-02 17:10:00,58.3,47.0,29.89,SE,144,1.0,8.0,66,0.00,,,0.00,WeatherCatV1.21B27,2013-10-03 00:10:00,
2013-10-02 17:15:00,58.2,46.9,29.89,SSE,165,0.0,4.0,66,0.00,,,0.00,WeatherCatV1.21B27,2013-10-03 00:15:00,
2013-10-02 17:20:00,57.9,47.0,29.89,ENE,62,5.0,5.0,67,0.00,,,0.00,WeatherCatV1.21B27,2013-10-03 00:20:00,
2013-10-02 17:25:00,57.4,46.5,29.89,SW,219,4.0,6.0,67,0.00,,,0.00,WeatherCatV1.21B27,2013-10-03 00:25:00,
2013-10-02 17:30:00,57.0,46.9,29.89,SSE,161,1.0,4.0,69,0.00,,,0.00,WeatherCatV1.21B27,2013-10-03 00:30:00,
2013-10-02 17:35:00,56.9,46.8,29.89,SSE,158,1.0,11.0,69,0.00,,,0.00,WeatherCatV1.21B27,2013-10-03 00:35:00,
2013-10-02 17:40:00,56.7,47.0,29.89,SSE,149,2.0,4.0,70,0.00,,,0.00,WeatherCatV1.21B27,2013-10-03 00:40:00,
2013-10-02 17:45:00,56.5,46.8,29.89,South,189,2.0,5.0,70,0.00,,,0.00,WeatherCatV1.21B27,2013-10-03 00:45:00,
2013-10-02 17:50:00,56.2,46.5,29.89,SSE,155,0.0,4.0,70,0.00,,,0.00,WeatherCatV1.21B27,2013-10-03 00:50:00,
2013-10-02 17:55:00,55.9,46.6,29.89,SSE,157,3.0,7.0,71,0.00,,,0.00,WeatherCatV1.21B27,2013-10-03 00:55:00,
2013-10-02 18:00:00,55.5,46.2,29.90,SE,130,9.0,10.0,71,0.00,,,0.00,WeatherCatV1.21B27,2013-10-03 01:00:00,
2013-10-02 18:05:00,54.9,46.4,29.89,South,183,1.0,7.0,73,0.00,,,0.00,WeatherCatV1.21B27,2013-10-03 01:05:00,
2013-10-02 18:10:00,54.6,46.1,29.89,East,81,3.0,17.0,73,0.00,,,0.00,WeatherCatV1.21B27,2013-10-03 01:10:00,
2013-10-02 18:15:00,54.4,46.3,29.89,SSE,167,1.0,7.0,74,0.00,,,0.00,WeatherCatV1.21B27,2013-10-03 01:15:00,
2013-10-02 18:20:00,54.1,46.0,29.89,East,86,3.0,3.0,74,0.00,,,0.00,WeatherCatV1.21B27,2013-10-03 01:20:00,
2013-10-02 18:25:00,53.9,46.2,29.89,South,184,4.0,4.0,75,0.00,,,0.00,WeatherCatV1.21B27,2013-10-03 01:25:00,
2013-10-02 18:30:00,53.6,46.2,29.89,SSE,150,0.0,1.0,76,0.00,,,0.00,WeatherCatV1.21B27,2013-10-03 01:30:00,
2013-10-02 18:35:00,53.3,45.9,29.90,NE,52,4.0,4.0,76,0.00,,,0.00,WeatherCatV1.21B27,2013-10-03 01:35:00,
2013-10-02 18:40:00,53.1,45.7,29.89,NE,44,4.0,5.0,76,0.00,,,0.00,WeatherCatV1.21B27,2013-10-03 01:40:00,
2013-10-02 18:45:00,53.0,46.0,29.90,East,96,5.0,5.0,77,0.00,,,0.00,WeatherCatV1.21B27,2013-10-03 01:45:00,
2013-10-02 18:50:00,52.9,45.9,29.89,ESE,117,1.0,4.0,77,0.00,,,0.00,WeatherCatV1.21B27,2013-10-03 01:50:00,
2013-10-02 18:55:00,52.5,45.5,29.89,ESE,109,2.0,5.0,77,0.00,,,0.00,WeatherCatV1.21B27,2013-10-03 01:55:00,
2013-10-02 19:00:00,52.2,45.5,29.90,ESE,118,0.0,2.0,78,0.00,,,0.00,WeatherCatV1.21B27,2013-10-03 02:00:00,
2013-10-02 19:05:00,52.1,45.5,29.89,WNW,290,6.0,6.0,78,0.00,,,0.00,WeatherCatV1.21B27,2013-10-03 02:05:00,
2013-10-02 19:10:00,52.2,45.5,29.89,NW,319,3.0,5.0,78,0.00,,,0.00,WeatherCatV1.21B27,2013-10-03 02:10:00,
2013-10-02 19:15:00,52.2,45.5,29.89,SSE,161,3.0,10.0,78,0.00,,,0.00,WeatherCatV1.21B27,2013-10-03 02:15:00,
2013-10-02 19:20:00,52.2,45.5,29.89,SW,225,3.0,6.0,78,0.00,,,0.00,WeatherCatV1.21B27,2013-10-03 02:20:00,
2013-10-02 19:25:00,52.3,45.7,29.89,SW,214,2.0,7.0,78,0.00,,,0.00,WeatherCatV1.21B27,2013-10-03 02:25:00,
2013-10-02 19:30:00,52.4,45.4,29.89,WNW,300,3.0,7.0,77,0.00,,,0.00,WeatherCatV1.21B27,2013-10-03 02:30:00,
2013-10-02 19:35:00,52.4,45.4,29.89,SSW,211,2.0,13.0,77,0.00,,,0.00,WeatherCatV1.21B27,2013-10-03 02:35:00,
2013-10-02 19:40:00,52.7,45.3,29.89,South,183,3.0,6.0,76,0.00,,,0.00,WeatherCatV1.21B27,2013-10-03 02:40:00,
2013-10-02 19:45:00,52.8,45.1,29.90,WNW,283,3.0,12.0,75,0.00,,,0.00,WeatherCatV1.21B27,2013-10-03 02:45:00,
2013-10-02 19:50:00,52.6,45.2,29.90,East,99,2.0,9.0,76,0.00,,,0.00,WeatherCatV1.21B27,2013-10-03 02:50:00,
2013-10-02 19:55:00,52.4,45.1,29.91,SSE,161,10.0,11.0,76,0.00,,,0.00,WeatherCatV1.21B27,2013-10-03 02:55:00,
2013-10-02 20:00:00,52.4,45.1,29.90,SW,232,5.0,18.0,76,0.00,,,0.00,WeatherCatV1.21B27,2013-10-03 03:00:00,
2013-10-02 20:05:00,52.2,45.2,29.90,NE,43,7.0,17.0,77,0.00,,,0.00,WeatherCatV1.21B27,2013-10-03 03:05:00,
2013-10-02 20:10:00,52.1,45.1,29.90,WNW,290,4.0,7.0,77,0.00,,,0.00,WeatherCatV1.21B27,2013-10-03 03:10:00,
2013-10-02 20:15:00,52.0,45.3,29.90,NE,56,7.0,12.0,78,0.00,,,0.00,WeatherCatV1.21B27,2013-10-03 03:15:00,
2013-10-02 20:20:00,52.0,45.3,29.90,SSE,161,1.0,13.0,78,0.00,,,0.00,WeatherCatV1.21B27,2013-10-03 03:20:00,
2013-10-02 20:25:00,52.0,45.3,29.90,SW,216,5.0,5.0,78,0.00,,,0.00,WeatherCatV1.21B27,2013-10-03 03:25:00,
2013-10-02 20:30:00,52.1,45.1,29.91,ENE,70,7.0,16.0,77,0.00,,,0.00,WeatherCatV1.21B27,2013-10-03 03:30:00,
2013-10-02 20:35:00,52.1,45.1,29.91,ENE,74,6.0,18.0,77,0.00,,,0.00,WeatherCatV1.21B27,2013-10-03 03:35:00,
2013-10-02 20:40:00,52.0,45.0,29.91,NNE,32,7.0,11.0,77,0.00,,,0.00,WeatherCatV1.21B27,2013-10-03 03:40:00,
2013-10-02 20:45:00,52.0,45.3,29.92,NE,36,4.0,16.0,78,0.00,,,0.00,WeatherCatV1.21B27,2013-10-03 03:45:00,
2013-10-02 20:50:00,51.8,45.2,29.91,NNE,32,9.0,18.0,78,0.00,,,0.00,WeatherCatV1.21B27,2013-10-03 03:50:00,
2013-10-02 20:55:00,51.7,45.1,29.92,SE,126,3.0,11.0,78,0.00,,,0.00,WeatherCatV1.21B27,2013-10-03 03:55:00,
2013-10-02 21:00:00,51.6,45.0,29.91,East,101,3.0,7.0,78,0.00,,,0.00,WeatherCatV1.21B27,2013-10-03 04:00:00,
2013-10-02 21:05:00,51.5,44.9,29.92,WSW,250,3.0,5.0,78,0.00,,,0.00,WeatherCatV1.21B27,2013-10-03 04:05:00,
2013-10-02 21:10:00,51.4,44.8,29.92,East,90,6.0,12.0,78,0.00,,,0.00,WeatherCatV1.21B27,2013-10-03 04:10:00,
2013-10-02 21:15:00,51.3,44.7,29.92,SSW,206,3.0,6.0,78,0.00,,,0.00,WeatherCatV1.21B27,2013-10-03 04:15:00,
2013-10-02 21:20:00,51.3,44.3,29.92,ENE,68,13.0,13.0,77,0.00,,,0.00,WeatherCatV1.21B27,2013-10-03 04:20:00,
2013-10-02 21:25:00,51.6,44.6,29.91,ENE,63,6.0,14.0,77,0.00,,,0.00,WeatherCatV1.21B27,2013-10-03 04:25:00,
2013-10-02 21:30:00,51.6,44.6,29.91,WSW,250,6.0,7.0,77,0.00,,,0.00,WeatherCatV1.21B27,2013-10-03 04:30:00,
2013-10-02 21:35:00,51.8,44.5,29.92,WNW,298,3.0,20.0,76,0.00,,,0.00,WeatherCatV1.21B27,2013-10-03 04:35:00,
2013-10-02 21:40:00,51.9,44.2,29.92,West,259,6.0,6.0,75,0.00,,,0.00,WeatherCatV1.21B27,2013-10-03 04:40:00,
2013-10-02 21:45:00,51.7,44.4,29.92,East,80,5.0,5.0,76,0.00,,,0.00,WeatherCatV1.21B27,2013-10-03 04:45:00,
2013-10-02 21:50:00,51.5,44.5,29.92,ESE,120,2.0,7.0,77,0.00,,,0.00,WeatherCatV1.21B27,2013-10-03 04:50:00,
2013-10-02 21:55:00,51.5,44.5,29.92,SE,136,1.0,15.0,77,0.00,,,0.00,WeatherCatV1.21B27,2013-10-03 04:55:00,
2013-10-02 22:00:00,51.3,44.3,29.92,ENE,61,13.0,13.0,77,0.00,,,0.00,WeatherCatV1.21B27,2013-10-03 05:00:00,
2013-10-02 22:05:00,51.5,44.2,29.91,South,171,2.0,17.0,76,0.00,,,0.00,WeatherCatV1.21B27,2013-10-03 05:05:00,
2013-10-02 22:10:00,51.6,44.6,29.91,East,87,5.0,20.0,77,0.00,,,0.00,WeatherCatV1.21B27,2013-10-03 05:10:00,
2013-10-02 22:15:00,51.4,44.4,29.91,East,91,6.0,15.0,77,0.00,,,0.00,WeatherCatV1.21B27,2013-10-03 05:15:00,
2013-10-02 22:20:00,51.3,44.3,29.92,WSW,240,4.0,4.0,77,0.00,,,0.00,WeatherCatV1.21B27,2013-10-03 05:20:00,
2013-10-02 22:25:00,51.1,44.1,29.92,WSW,237,4.0,6.0,77,0.00,,,0.00,WeatherCatV1.21B27,2013-10-03 05:25:00,
2013-10-02 22:30:00,50.9,44.3,29.92,ENE,76,9.0,9.0,78,0.00,,,0.00,WeatherCatV1.21B27,2013-10-03 05:30:00,
2013-10-02 22:35:00,50.8,44.2,29.92,NNE,19,4.0,13.0,78,0.00,,,0.00,WeatherCatV1.21B27,2013-10-03 05:35:00,
2013-10-02 22:40:00,50.8,43.8,29.91,SE,128,1.0,2.0,77,0.00,,,0.00,WeatherCatV1.21B27,2013-10-03 05:40:00,
2013-10-02 22:45:00,50.9,43.6,29.91,ENE,63,7.0,7.0,76,0.00,,,0.00,WeatherCatV1.21B27,2013-10-03 05:45:00,
2013-10-02 22:50:00,50.8,43.8,29.91,SW,223,4.0,4.0,77,0.00,,,0.00,WeatherCatV1.21B27,2013-10-03 05:50:00,
2013-10-02 22:55:00,50.7,43.8,29.91,South,186,2.0,6.0,77,0.00,,,0.00,WeatherCatV1.21B27,2013-10-03 05:55:00,
2013-10-02 23:00:00,50.3,43.7,29.91,SSW,205,1.0,4.0,78,0.00,,,0.00,WeatherCatV1.21B27,2013-10-03 06:00:00,
2013-10-02 23:05:00,50.2,43.6,29.91,NE,54,2.0,3.0,78,0.00,,,0.00,WeatherCatV1.21B27,2013-10-03 06:05:00,
2013-10-02 23:10:00,50.3,43.7,29.92,WSW,248,4.0,4.0,78,0.00,,,0.00,WeatherCatV1.21B27,2013-10-03 06:10:00,
2013-10-02 23:15:00,50.3,43.7,29.91,ESE,121,0.0,9.0,78,0.00,,,0.00,WeatherCatV1.21B27,2013-10-03 06:15:00,
2013-10-02 23:20:00,50.3,43.4,29.92,SSW,198,4.0,7.0,77,0.00,,,0.00,WeatherCatV1.21B27,2013-10-03 06:20:00,
2013-10-02 23:25:00,50.6,43.3,29.92,NE,46,4.0,5.0,76,0.00,,,0.00,WeatherCatV1.21B27,2013-10-03 06:25:00,
2013-10-02 23:30:00,50.5,43.6,29.92,South,183,0.0,2.0,77,0.00,,,0.00,WeatherCatV1.21B27,2013-10-03 06:30:00,
2013-10-02 23:35:00,50.3,43.4,29.92,SSE,151,0.0,0.0,77,0.00,,,0.00,WeatherCatV1.21B27,2013-10-03 06:35:00,
2013-10-02 23:40:00,49.9,43.0,29.92,SE,144,1.0,2.0,77,0.00,,,0.00,WeatherCatV1.21B27,2013-10-03 06:40:00,
2013-10-02 23:45:00,50.0,43.1,29.92,ESE,119,1.0,4.0,77,0.00,,,0.00,WeatherCatV1.21B27,2013-10-03 06:45:00,
2013-10-02 23:50:00,50.0,43.1,29.92,SE,124,1.0,3.0,77,0.00,,,0.00,WeatherCatV1.21B27,2013-10-03 06:50:00,
2013-10-02 23:55:00,50.1,43.2,29.92,SW,223,2.0,5.0,77,0.00,,,0.00,WeatherCatV1.21B27,2013-10-03 06:55:00,